Home > Weather > Bensheim > Past weeks

Flag for Germany Past Weather in Bensheim, Hesse, Germany — Yesterday and Last 2 Weeks

Now
57 °F

Overcast.


Feels Like: 57 °F
Forecast: 47 / 73 °F
Wind: 5 mph from Southeast

Location: Mannheim City

Current Time: May 25, 2016 at 1:12:58 PM

Latest Report: May 25, 2016 at 12:50 PM


Visibility: N/A

Pressure: 29.98 "Hg

Humidity: 72%

Dew Point: 48 °F

Location of BensheimLocation

Past Weather in Bensheim — Graph

°F

Bensheim Temperature Yesterday

Maximum temperature yesterday: 54 °F (at 5:20 AM)
Minimum temperature yesterday: 52 °F (at 10:50 AM)
Average temperature yesterday: 54 °F

High & Low Weather Summary for the Past Weeks

 TemperatureHumidityPressure
High81 °F (May 22, 2:50 PM)100% (May 10, 8:20 PM)30.15 "Hg (May 10, 8:20 PM)
Low45 °F (May 17, 5:50 AM)28% (May 22, 4:20 PM)29.45 "Hg (May 12, 7:50 PM)
Average60 °F68%29.88 "Hg
* Reported May 10 11:20 AM — May 25 11:20 AM, Bensheim, Weather by CustomWeather, © 2016

Note: Actual official high and low records may vary slightly from our data, if they occured in-between our weather recording intervals... More about our weather records

Advertising

Bensheim Weather History for the Previous 24 Hours

Scroll right to see more
 ConditionsComfort  
Time TempWeatherWind HumidityBarometerVisibility
11:20 AM
Wed, May 25
55 °FOvercast.3 mph77%29.98 "HgN/A
10:50 AM57 °FOvercast.6 mph72%29.98 "HgN/A
10:20 AM55 °FOvercast.3 mph77%29.98 "HgN/A
9:50 AM55 °FOvercast.3 mph77%29.98 "HgN/A
9:20 AM54 °FOvercast.2 mph82%29.98 "HgN/A
8:50 AM54 °FOvercast.No wind88%29.98 "HgN/A
8:20 AM54 °FOvercast.2 mph88%29.98 "Hg6 mi
7:50 AM54 °FOvercast.2 mph88%29.98 "HgN/A
7:20 AM52 °FOvercast.2 mph100%29.98 "Hg6 mi
6:50 AM52 °FOvercast.No wind100%29.98 "Hg4 mi
6:20 AM52 °FOvercast.No wind100%29.98 "Hg4 mi
5:50 AM50 °FFog.2 mph100%29.98 "Hg3 mi
10:20 PM
Tue, May 24
54 °FOvercast.3 mph88%30.01 "HgN/A
9:50 PM54 °FOvercast.5 mph88%30.01 "HgN/A
9:20 PM54 °FOvercast.3 mph88%30.01 "HgN/A
8:50 PM54 °FOvercast.3 mph82%30.01 "HgN/A
7:50 PM54 °FOvercast.8 mph82%29.98 "HgN/A
7:20 PM54 °FOvercast.7 mph82%29.98 "HgN/A
6:50 PM54 °FOvercast.7 mph82%29.98 "HgN/A
6:20 PM54 °FOvercast.6 mph82%29.98 "HgN/A
5:50 PM54 °FOvercast.7 mph82%29.98 "HgN/A
5:20 PM54 °FOvercast.8 mph82%29.98 "HgN/A
4:50 PM54 °FOvercast.7 mph82%29.98 "HgN/A
4:20 PM54 °FMore clouds than sun.9 mph82%29.98 "HgN/A
3:50 PM54 °FMore clouds than sun.9 mph82%29.98 "HgN/A
3:20 PM54 °FPartly sunny.7 mph88%29.98 "HgN/A
2:50 PM54 °FPartly sunny.9 mph88%29.98 "HgN/A
2:20 PM54 °FPartly sunny.10 mph88%29.98 "HgN/A
1:50 PM54 °FLight rain. Broken clouds.12 mph88%29.98 "HgN/A
1:20 PM54 °FLight rain. Partly sunny.8 mph94%29.98 "HgN/A
Weather by CustomWeather, © 2016

See weather overviewHow to use our weather pages